DKFIS LSGK-LFLJ

Flight info

Callsign DKFIS
Flight time 0h 32m
Altitude 16000
Route DCT VALOR DCT
Aircraft DA42/L-SBDGRY/S

Departure

Time 2026-05-07 17:11
Airport Saanen Airfield (LSGK)

Arrival

Time 2026-05-07 17:43
Airport Courchevel Altiport (LFLJ)
Time Latitude Longitude Altitude Speed Heading
2026-05-07 16:11 46.48714 7.24788 3358 ft 0 kts 167°
2026-05-07 17:08 46.48700 7.24794 3456 ft 4 kts 135°
2026-05-07 17:08 46.48681 7.24836 3452 ft 7 kts 167°
2026-05-07 17:08 46.48661 7.24896 3451 ft 11 kts 80°
2026-05-07 17:09 46.48679 7.25040 3450 ft 18 kts 79°
2026-05-07 17:09 46.48705 7.25233 3450 ft 20 kts 79°
2026-05-07 17:09 46.48730 7.25420 3447 ft 18 kts 80°
2026-05-07 17:09 46.48752 7.25592 3450 ft 16 kts 77°
2026-05-07 17:10 46.48774 7.25725 3450 ft 14 kts 62°
2026-05-07 17:10 46.48770 7.25761 3449 ft 10 kts 288°
2026-05-07 17:10 46.48727 7.25408 3446 ft 64 kts 259°
2026-05-07 17:10 46.48619 7.24591 3536 ft 90 kts 261°
2026-05-07 17:11 46.48523 7.23706 3906 ft 89 kts 263°
2026-05-07 17:11 46.48440 7.22804 4226 ft 91 kts 263°
2026-05-07 17:11 46.48329 7.21914 4465 ft 93 kts 253°
2026-05-07 17:11 46.48150 7.20987 4677 ft 98 kts 255°
2026-05-07 17:12 46.47952 7.20011 5035 ft 101 kts 253°
2026-05-07 17:12 46.47772 7.19022 5476 ft 103 kts 273°
2026-05-07 17:12 46.48214 7.18248 5840 ft 115 kts 345°
2026-05-07 17:12 46.49029 7.18169 6192 ft 119 kts 356°
2026-05-07 17:13 46.49874 7.18188 6479 ft 124 kts
2026-05-07 17:13 46.50495 7.18926 6802 ft 125 kts 83°
2026-05-07 17:13 46.50111 7.19853 7089 ft 114 kts 176°
2026-05-07 17:13 46.49326 7.19839 7464 ft 112 kts 185°
2026-05-07 17:14 46.48545 7.19795 7813 ft 113 kts 187°
2026-05-07 17:14 46.47748 7.19724 8121 ft 116 kts 186°
2026-05-07 17:14 46.46955 7.19633 8458 ft 114 kts 187°
2026-05-07 17:14 46.46158 7.19596 8817 ft 112 kts 184°
2026-05-07 17:15 46.45359 7.19610 9113 ft 119 kts 181°
2026-05-07 17:15 46.44491 7.19654 9366 ft 129 kts 177°
2026-05-07 17:15 46.43597 7.19786 9638 ft 131 kts 180°
2026-05-07 17:15 46.42688 7.19942 9891 ft 135 kts 175°
2026-05-07 17:16 46.41726 7.20055 9998 ft 148 kts 186°
2026-05-07 17:16 46.40691 7.19681 10006 ft 158 kts 203°
2026-05-07 17:16 46.39655 7.19047 10004 ft 164 kts 205°
2026-05-07 17:16 46.38607 7.18365 9993 ft 165 kts 206°
2026-05-07 17:17 46.37566 7.17690 9997 ft 165 kts 206°
2026-05-07 17:17 46.36504 7.16999 9993 ft 168 kts 205°
2026-05-07 17:17 46.35428 7.16308 9993 ft 170 kts 205°
2026-05-07 17:17 46.34342 7.15608 9989 ft 172 kts 205°
2026-05-07 17:18 46.33278 7.14919 9986 ft 168 kts 205°
2026-05-07 17:18 46.32212 7.14232 9991 ft 166 kts 206°
2026-05-07 17:18 46.31156 7.13549 9991 ft 167 kts 206°
2026-05-07 17:18 46.30090 7.12862 9973 ft 167 kts 206°
2026-05-07 17:19 46.29041 7.12183 10019 ft 164 kts 206°
2026-05-07 17:19 46.28012 7.11525 10217 ft 160 kts 205°
2026-05-07 17:19 46.27007 7.10880 10402 ft 155 kts 206°
2026-05-07 17:19 46.26022 7.10239 10605 ft 156 kts 206°
2026-05-07 17:20 46.25046 7.09614 10790 ft 154 kts 206°
2026-05-07 17:20 46.24070 7.08987 10995 ft 154 kts 205°
2026-05-07 17:20 46.23097 7.08364 11170 ft 155 kts 206°
2026-05-07 17:20 46.22108 7.07721 11271 ft 154 kts 206°
2026-05-07 17:21 46.21121 7.07112 11422 ft 158 kts 206°
2026-05-07 17:21 46.20104 7.06435 11587 ft 163 kts 205°
2026-05-07 17:21 46.19037 7.05743 11708 ft 170 kts 205°
2026-05-07 17:21 46.17951 7.05057 11835 ft 171 kts 205°
2026-05-07 17:22 46.16869 7.04367 11962 ft 170 kts 205°
2026-05-07 17:22 46.15773 7.03662 11985 ft 175 kts 206°
2026-05-07 17:22 46.14650 7.02942 11988 ft 178 kts 205°
2026-05-07 17:22 46.13532 7.02225 12000 ft 174 kts 205°
2026-05-07 17:23 46.12424 7.01521 11999 ft 175 kts 205°
2026-05-07 17:23 46.11318 7.00812 12004 ft 177 kts 205°
2026-05-07 17:23 46.10184 7.00085 12005 ft 179 kts 205°
2026-05-07 17:23 46.09045 6.99357 12008 ft 179 kts 205°
2026-05-07 17:24 46.07892 6.98620 12000 ft 182 kts 205°
2026-05-07 17:24 46.06734 6.97875 12005 ft 183 kts 206°
2026-05-07 17:24 46.05558 6.97176 12005 ft 183 kts 200°
2026-05-07 17:24 46.04359 6.96561 12048 ft 181 kts 202°
2026-05-07 17:25 46.03197 6.95947 12169 ft 176 kts 202°
2026-05-07 17:25 46.02060 6.95361 12301 ft 175 kts 201°
2026-05-07 17:25 46.00922 6.94766 12426 ft 173 kts 202°
2026-05-07 17:25 45.99797 6.94179 12557 ft 171 kts 202°
2026-05-07 17:26 45.98678 6.93600 12689 ft 171 kts 201°
2026-05-07 17:26 45.97559 6.93021 12817 ft 170 kts 202°
2026-05-07 17:26 45.96448 6.92443 12949 ft 170 kts 202°
2026-05-07 17:26 45.95330 6.91859 13035 ft 173 kts 202°
2026-05-07 17:27 45.94197 6.91271 13166 ft 173 kts 202°
2026-05-07 17:27 45.93086 6.90698 13289 ft 171 kts 202°
2026-05-07 17:27 45.91964 6.90150 13418 ft 171 kts 197°
2026-05-07 17:27 45.90766 6.90225 13552 ft 175 kts 177°
2026-05-07 17:28 45.89556 6.90303 13678 ft 172 kts 182°
2026-05-07 17:28 45.88357 6.90318 13844 ft 173 kts 184°
2026-05-07 17:28 45.87163 6.90326 13951 ft 170 kts 183°
2026-05-07 17:28 45.85976 6.90343 14074 ft 171 kts 183°
2026-05-07 17:29 45.84799 6.90369 14189 ft 168 kts 183°
2026-05-07 17:29 45.83620 6.90368 14311 ft 171 kts 183°
2026-05-07 17:29 45.82448 6.90315 14433 ft 170 kts 191°
2026-05-07 17:29 45.81317 6.89899 14554 ft 168 kts 205°
2026-05-07 17:30 45.80264 6.89186 14677 ft 168 kts 208°
2026-05-07 17:30 45.79224 6.88446 14803 ft 166 kts 209°
2026-05-07 17:30 45.78230 6.87615 14923 ft 165 kts 219°
2026-05-07 17:30 45.77385 6.86491 15003 ft 168 kts 229°
2026-05-07 17:31 45.76677 6.85130 15001 ft 173 kts 238°
2026-05-07 17:31 45.76143 6.83571 15009 ft 176 kts 248°
2026-05-07 17:31 45.75605 6.82029 15006 ft 177 kts 228°
2026-05-07 17:31 45.74565 6.81074 15010 ft 181 kts 205°
2026-05-07 17:32 45.73365 6.80462 15012 ft 185 kts 201°
2026-05-07 17:32 45.72139 6.79873 15012 ft 187 kts 201°
2026-05-07 17:32 45.70917 6.79254 15001 ft 186 kts 202°
2026-05-07 17:32 45.70111 6.78841 15005 ft 185 kts 202°
2026-05-07 17:33 45.68488 6.78009 15004 ft 187 kts 202°
2026-05-07 17:33 45.67252 6.77371 15004 ft 189 kts 202°
2026-05-07 17:33 45.66018 6.76738 14969 ft 185 kts 203°
2026-05-07 17:33 45.64850 6.76148 15008 ft 180 kts 202°
2026-05-07 17:34 45.63661 6.75536 15007 ft 183 kts 203°
2026-05-07 17:34 45.62468 6.74920 15009 ft 183 kts 202°
2026-05-07 17:34 45.61268 6.74304 15004 ft 183 kts 202°
2026-05-07 17:34 45.60069 6.73692 15005 ft 182 kts 202°
2026-05-07 17:35 45.58877 6.73083 15005 ft 182 kts 202°
2026-05-07 17:35 45.57684 6.72473 15004 ft 183 kts 202°
2026-05-07 17:35 45.56891 6.72067 15007 ft 183 kts 202°
2026-05-07 17:35 45.55285 6.71246 15006 ft 183 kts 202°
2026-05-07 17:36 45.54084 6.70631 15003 ft 184 kts 202°
2026-05-07 17:36 45.52895 6.70027 15001 ft 184 kts 202°
2026-05-07 17:36 45.51688 6.69410 15005 ft 185 kts 202°
2026-05-07 17:36 45.50474 6.68794 15004 ft 185 kts 202°
2026-05-07 17:37 45.49259 6.68173 14998 ft 186 kts 202°
2026-05-07 17:37 45.47979 6.67894 15000 ft 188 kts 185°
2026-05-07 17:37 45.46671 6.67896 15005 ft 188 kts 182°
2026-05-07 17:37 45.45366 6.67904 14801 ft 185 kts 185°
2026-05-07 17:38 45.44094 6.67699 14312 ft 184 kts 194°
2026-05-07 17:38 45.43278 6.67407 13935 ft 181 kts 194°
2026-05-07 17:38 45.42017 6.67049 10695 ft 212 kts 194°
2026-05-07 17:38 45.41555 6.65195 9259 ft 214 kts 290°
2026-05-07 17:39 45.43233 6.64438 7712 ft 212 kts 25°
2026-05-07 17:39 45.43563 6.64739 7563 ft 206 kts 39°
2026-05-07 17:41 45.43941 6.65377 7429 ft 191 kts 60°
2026-05-07 17:41 45.43934 6.67034 7051 ft 168 kts 123°
2026-05-07 17:42 45.43016 6.67132 6327 ft 157 kts 236°
2026-05-07 17:42 45.42545 6.65844 6028 ft 122 kts 230°
2026-05-07 17:42 45.41901 6.65404 6088 ft 87 kts 219°
2026-05-07 17:42 45.41554 6.64713 6124 ft 88 kts 215°
2026-05-07 17:43 45.40742 6.64308 6288 ft 95 kts 182°
2026-05-07 17:43 45.40161 6.64036 6403 ft 92 kts 220°
2026-05-07 17:43 45.39833 6.63614 6446 ft 86 kts 226°
2026-05-07 17:43 45.39595 6.63304 6602 ft 21 kts 180°
2026-05-07 17:44 45.39580 6.63344 6599 ft 0 kts 345°
2026-05-07 17:47 45.39587 6.63340 6599 ft 10 kts 339°
2026-05-07 17:47 45.39674 6.63389 6595 ft 26 kts 43°
2026-05-07 17:47 45.40040 6.63834 6381 ft 98 kts 37°
2026-05-07 17:48 45.40619 6.64367 6509 ft 104 kts 19°
2026-05-07 17:48 45.41369 6.64657 6676 ft 118 kts
2026-05-07 17:48 45.41777 6.65351 6979 ft 113 kts 110°
2026-05-07 17:48 45.41087 6.65419 6948 ft 130 kts 224°
2026-05-07 17:49 45.40499 6.64569 6567 ft 109 kts 226°
2026-05-07 17:49 45.40006 6.63855 6409 ft 96 kts 229°
2026-05-07 17:49 45.39667 6.63384 6599 ft 34 kts 218°
2026-05-07 17:49 45.39590 6.63307 6602 ft 0 kts 30°
2026-05-07 17:50 45.39590 6.63308 6602 ft 1 kts 30°
2026-05-07 17:50 45.39642 6.63345 6606 ft 25 kts 41°
2026-05-07 17:50 45.39905 6.63687 6429 ft 86 kts 37°
2026-05-07 17:50 45.40458 6.64150 6566 ft 104 kts 27°
2026-05-07 17:51 45.40608 6.64839 6708 ft 104 kts 177°
2026-05-07 17:51 45.40167 6.64119 6505 ft 101 kts 235°
2026-05-07 17:51 45.39748 6.63494 6526 ft 61 kts 226°
2026-05-07 17:51 45.39582 6.63306 6599 ft 18 kts 256°
2026-05-07 17:52 45.39598 6.63293 6605 ft 7 kts 41°
2026-05-07 17:52 45.39796 6.63551 6465 ft 81 kts 45°
2026-05-07 17:52 45.40386 6.64273 5814 ft 146 kts 33°
2026-05-07 17:52 45.41495 6.64525 6010 ft 137 kts 14°
2026-05-07 17:53 45.41749 6.65544 6399 ft 138 kts 131°
2026-05-07 17:53 45.41053 6.65421 6767 ft 118 kts 235°
2026-05-07 17:53 45.40517 6.64569 6595 ft 113 kts 226°
2026-05-07 17:53 45.39979 6.63821 6404 ft 100 kts 229°
2026-05-07 17:54 45.39628 6.63340 6601 ft 33 kts 218°
2026-05-07 17:54 45.39585 6.63258 6600 ft 0 kts 263°